ROMMA est une association bénévole à but non lucratif. Votre soutien est indispensable : ADHERER à ROMMA ou FAIRE un DON

Val-d'Arly - (73, Savoie)

Beaufortain (2050 m)   Longitude: 06° 35' 21" E   Latitude: 45° 46' 53" N Station romma n°118
 

Détail journalier du     <<     >>

Température Precipitation Humidité Vent Dir Rafale Dir. rafale Ensol.
Heure (°C) (mm) (%) (km/h) (km/h) (min)
01:00 0.009713N24NNE0
02:00 -0.20978NO19NO0
03:00 -0.309713O16O0
04:00 -0.50976O15O0
05:00 -0.709711O19O0
06:00 -0.709710O15O0
07:00 -0.60977O13O0
08:00 -0.309710O13O0
09:00 0.209711O16OSO30
10:00 0.419712OSO16OSO40
11:00 1.20.6969O18O60
12:00 1.409614OSO21OSO60
13:00 1.809616O24O50
14:00 3.209620OSO32O40
15:00 4.409519O32OSO20
16:00 5.408619OSO32O30
17:00 6.207420OSO31O60
18:00 6.307121OSO31O10
19:00 4.70.28916O35ONO0
20:00 4.409327O43ONO0
21:00 4.709221O39O10
22:00 5.208617OSO24SO0
23:00 5.308324OSO31SO0
minuit 5.108421OSO29OSO0

Graphique du 10-05-2019

 

Serveur OMMA